Location: Dompnac
(44.5644°N, 4.1026°E)
Time: 02:42:37
(UTC+00:00)

USA 234 - Pass Details

Date: 23 January 2021
Orbit: 1100 x 1107 km, 123.0° (Epoch: 01 March)

Event Time Altitude Azimuth Distance (km) Brightness Sun altitude
Exits shadow 18:14:01 20° 53° (NE) 2,293 4.4 -16.6°
Maximum altitude 18:17:21 31° 9° (N) 1,817 4.2 -17.2°
Drops below altitude 10° 18:22:56 10° 310° (NW) 2,967 6.1 -18.2°
Sets 18:25:42 0° 301° (WNW) 3,927 7.0 -18.6°
